Back to catalog

DOJO

AliveScienceSSO
NORAD 65302·PAYLOAD·🇷🇼 Rwanda

Launched Aug 23, 2025 from Rocket Lab Launch Complex 1

Loading…

Next Passes (next 24 hours)

TLE

FreshSource: Space-Track

Epoch: Sep 14, 2026, 05:49 UTC

1 65302U 25185F   26257.24256988  .00007112  00000-0  92689-3 0  9991
2 65302  97.9639 339.9123 0015784 150.1368 210.0748 14.80795535 57012

Track DOJO in real time with AllMySat

Download on the App Store